Manteo, NC

6:40 PM EST on December 18, 2017 (GMT -0500)
Dare County Regional

Weather History for KMQI - August, 2014

Change the Weather History Date:

Wednesday, August 27, 2014

  Actual Average Record
Temperature  
Mean Temperature 74 °F -  
Max Temperature 79 °F 81 °F 93 °F (1975)
Min Temperature 69 °F 72 °F 60 °F (1982)
Cooling Degree Days 9    
Growing Degree Days 24 (Base 50)    
Moisture  
Dew Point 71 °F    
Average Humidity 86    
Maximum Humidity 94    
Minimum Humidity 77    
Precipitation  
Precipitation 0.00 in - - ()
Sea Level Pressure  
Sea Level Pressure 29.98 in    
Wind  
Wind Speed 12 mph (North)    
Max Wind Speed 18 mph    
Max Gust Speed 25 mph    
Visibility 10 miles    
Events      
Averages and records for this station are not official NWS values.
T = Trace of Precipitation, MM = Missing Value Source: NWS Daily Summary

Daily Weather History Graph

Daily Weather History Graph

Search for Another Location

Airport or City:

Trip Planner

Search our weather history database for the weather conditions in past years. The results will help you decide how hot, cold, wet, or windy it might be!

Date:

Astronomy

Aug. 27, 2014 Rise Set
Actual Time 6:30 AM EDT 7:37 PM EDT
Civil Twilight 6:04 AM EDT 8:03 PM EDT
Nautical Twilight 5:32 AM EDT 8:34 PM EDT
Astronomical Twilight 5:00 AM EDT 9:07 PM EDT
Moon 8:19 AM EDT (8/27) 8:34 PM EDT (8/27)
Length of Visible Light 13h 59m
Length of Day
13h 06m
Waxing Crescent, 4% of the Moon is Illuminated
Aug 27
Waxing Crescent
Sep 2
First Quarter
Sep 8
Full
Sep 15
Last Quarter
Sep 24
New

Hourly Weather History & Observations

Time (EDT) Temp. Dew Point Humidity Pressure Visibility Wind Dir Wind Speed Gust Speed Precip Events Conditions
12:15 AM 73.4 °F 70.2 °F 90% 30.04 in 10.0 mi NNE 10.4 mph - N/A   Clear
12:35 AM 73.4 °F 70.2 °F 90% 30.04 in 10.0 mi NNE 11.5 mph - N/A   Clear
12:55 AM 73.4 °F 70.2 °F 90% 30.04 in 10.0 mi NNE 11.5 mph 17.3 mph N/A   Scattered Clouds
1:15 AM 73.4 °F 70.2 °F 90% 30.03 in 10.0 mi NNE 10.4 mph - N/A   Mostly Cloudy
1:35 AM 73.8 °F 70.5 °F 90% 30.03 in 10.0 mi NNE 10.4 mph - N/A   Overcast
1:55 AM 73.8 °F 70.5 °F 90% 30.01 in 10.0 mi NNE 11.5 mph 16.1 mph N/A   Mostly Cloudy
2:15 AM 73.6 °F 70.5 °F 90% 30.01 in 10.0 mi NNE 11.5 mph - N/A   Mostly Cloudy
2:35 AM 73.6 °F 70.7 °F 91% 30.00 in 10.0 mi NNE 10.4 mph - N/A   Mostly Cloudy
2:55 AM 73.4 °F 70.7 °F 91% 30.00 in 10.0 mi NNE 12.7 mph - N/A   Mostly Cloudy
3:15 AM 73.8 °F 70.7 °F 90% 29.99 in 10.0 mi NNE 9.2 mph - N/A   Overcast
3:35 AM 73.4 °F 70.7 °F 91% 29.99 in 10.0 mi NNE 12.7 mph 16.1 mph N/A   Scattered Clouds
3:55 AM 73.4 °F 70.7 °F 91% 29.98 in 10.0 mi NNE 11.5 mph - N/A   Clear
4:15 AM 73.4 °F 70.9 °F 92% 29.97 in 10.0 mi North 13.8 mph 17.3 mph N/A   Mostly Cloudy
4:35 AM 73.6 °F 70.9 °F 91% 29.98 in 10.0 mi NNE 8.1 mph - N/A   Overcast
4:55 AM 73.4 °F 70.9 °F 92% 29.98 in 10.0 mi NNE 10.4 mph 17.3 mph N/A   Scattered Clouds
5:15 AM 73.4 °F 71.2 °F 93% 29.99 in 10.0 mi NNE 10.4 mph - N/A   Scattered Clouds
5:35 AM 73.4 °F 71.2 °F 93% 29.98 in 10.0 mi NNE 11.5 mph - N/A   Scattered Clouds
5:55 AM 73.4 °F 71.4 °F 93% 29.98 in 10.0 mi NNE 10.4 mph - N/A   Clear
6:15 AM 73.4 °F 71.6 °F 94% 29.99 in 10.0 mi NNE 10.4 mph - N/A   Clear
6:35 AM 73.4 °F 71.6 °F 94% 30.00 in 10.0 mi NNE 11.5 mph - N/A   Mostly Cloudy
6:55 AM 73.6 °F 71.8 °F 94% 30.00 in 10.0 mi NNE 10.4 mph - N/A   Overcast
7:15 AM 73.8 °F 71.8 °F 93% 30.00 in 10.0 mi North 12.7 mph - N/A   Overcast
7:35 AM 74.1 °F 71.6 °F 92% 30.00 in 10.0 mi NNE 11.5 mph 21.9 mph N/A   Overcast
7:55 AM 74.3 °F 71.8 °F 92% 30.01 in 10.0 mi NNE 11.5 mph 18.4 mph N/A   Overcast
8:15 AM 75.2 °F 72.0 °F 90% 30.01 in 10.0 mi North 12.7 mph 18.4 mph N/A   Overcast
8:35 AM 75.2 °F 72.0 °F 90% 30.00 in 10.0 mi NNE 12.7 mph 19.6 mph N/A   Overcast
8:55 AM 76.6 °F 72.1 °F 86% 30.01 in 10.0 mi NNE 13.8 mph 21.9 mph N/A   Overcast
9:15 AM 77.0 °F 72.0 °F 84% 30.01 in 10.0 mi North 17.3 mph 21.9 mph N/A   Overcast
9:35 AM 76.3 °F 72.0 °F 86% 30.01 in 10.0 mi North 13.8 mph 23.0 mph N/A   Overcast
9:55 AM 77.0 °F 72.3 °F 85% 30.01 in 10.0 mi NNE 15.0 mph 20.7 mph N/A   Overcast
10:15 AM 77.9 °F 72.5 °F 83% 30.01 in 10.0 mi NNE 13.8 mph 20.7 mph N/A   Overcast
10:35 AM 78.1 °F 72.5 °F 83% 30.01 in 10.0 mi NNE 13.8 mph 21.9 mph N/A   Overcast
10:55 AM 78.4 °F 72.3 °F 81% 30.02 in 10.0 mi NNE 15.0 mph 24.2 mph N/A   Overcast
11:15 AM 78.6 °F 72.1 °F 80% 30.01 in 10.0 mi NNE 16.1 mph 23.0 mph N/A   Overcast
11:35 AM 79.3 °F 72.0 °F 78% 30.01 in 10.0 mi NNE 17.3 mph 23.0 mph N/A   Mostly Cloudy
11:55 AM 79.5 °F 72.3 °F 79% 30.00 in 10.0 mi NNE 17.3 mph 21.9 mph N/A   Mostly Cloudy
12:15 PM 79.7 °F 72.3 °F 78% 29.99 in 10.0 mi NNE 13.8 mph 20.7 mph N/A   Scattered Clouds
12:35 PM 79.7 °F 72.5 °F 79% 29.99 in 10.0 mi North 12.7 mph 20.7 mph N/A   Mostly Cloudy
12:55 PM 79.5 °F 72.3 °F 79% 29.99 in 10.0 mi North 16.1 mph 23.0 mph N/A   Overcast
1:15 PM 79.3 °F 72.5 °F 79% 29.99 in 10.0 mi North 15.0 mph 21.9 mph N/A   Overcast
1:35 PM 79.2 °F 71.8 °F 78% 29.98 in 10.0 mi North 16.1 mph 24.2 mph N/A   Overcast
1:55 PM 79.2 °F 72.0 °F 78% 29.97 in 10.0 mi North 18.4 mph 25.3 mph N/A   Mostly Cloudy
2:15 PM 79.9 °F 72.0 °F 77% 29.97 in 10.0 mi North 18.4 mph 21.9 mph N/A   Mostly Cloudy
2:35 PM 79.7 °F 72.1 °F 78% 29.97 in 10.0 mi North 17.3 mph 21.9 mph N/A   Mostly Cloudy
2:55 PM 79.5 °F 71.8 °F 77% 29.96 in 10.0 mi North 15.0 mph 20.7 mph N/A   Mostly Cloudy
3:15 PM 79.7 °F 71.8 °F 77% 29.95 in 10.0 mi North 15.0 mph - N/A   Mostly Cloudy
3:35 PM 78.8 °F 71.2 °F 78% 29.95 in 10.0 mi North 13.8 mph 20.7 mph N/A   Mostly Cloudy
3:55 PM 79.3 °F 71.6 °F 77% 29.95 in 10.0 mi North 12.7 mph - N/A   Mostly Cloudy
4:15 PM 78.6 °F 71.2 °F 78% 29.94 in 10.0 mi North 12.7 mph 18.4 mph N/A   Scattered Clouds
4:35 PM 77.7 °F 71.1 °F 80% 29.94 in 10.0 mi North 12.7 mph 18.4 mph N/A   Mostly Cloudy
4:55 PM 77.5 °F 70.7 °F 79% 29.95 in 10.0 mi NNE 13.8 mph 18.4 mph N/A   Overcast
5:15 PM 77.4 °F 70.2 °F 78% 29.95 in 10.0 mi North 12.7 mph 18.4 mph N/A   Overcast
5:35 PM 77.7 °F 70.5 °F 78% 29.95 in 10.0 mi North 13.8 mph 18.4 mph N/A   Mostly Cloudy
5:55 PM 76.3 °F 69.8 °F 80% 29.95 in 10.0 mi North 12.7 mph 18.4 mph N/A   Mostly Cloudy
6:15 PM 75.9 °F 69.8 °F 81% 29.95 in 10.0 mi North 11.5 mph - N/A   Scattered Clouds
6:35 PM 75.6 °F 69.8 °F 82% 29.94 in 10.0 mi North 10.4 mph - N/A   Scattered Clouds
6:55 PM 74.8 °F 70.0 °F 85% 29.94 in 10.0 mi North 9.2 mph - N/A   Scattered Clouds
7:15 PM 74.1 °F 70.2 °F 87% 29.94 in 10.0 mi North 9.2 mph - N/A   Scattered Clouds
7:35 PM 73.2 °F 69.8 °F 89% 29.94 in 10.0 mi North 8.1 mph - N/A   Scattered Clouds
7:55 PM 72.9 °F 69.6 °F 90% 29.94 in 10.0 mi North 10.4 mph - N/A   Clear
8:15 PM 72.7 °F 69.3 °F 89% 29.94 in 10.0 mi North 9.2 mph - N/A   Clear
8:35 PM 72.5 °F 68.2 °F 86% 29.94 in 10.0 mi North 9.2 mph - N/A   Clear
8:55 PM 72.0 °F 68.0 °F 87% 29.93 in 10.0 mi North 8.1 mph - N/A   Clear
9:15 PM 71.6 °F 67.3 °F 86% 29.93 in 10.0 mi North 4.6 mph - N/A   Clear
9:35 PM 71.6 °F 67.5 °F 87% 29.93 in 10.0 mi North 4.6 mph - N/A   Clear
9:55 PM 71.2 °F 67.5 °F 88% 29.92 in 10.0 mi North 4.6 mph - N/A   Clear
10:15 PM 70.0 °F 66.9 °F 90% 29.93 in 10.0 mi NNW 4.6 mph - N/A   Clear
10:35 PM 71.1 °F 67.3 °F 88% 29.92 in 10.0 mi North 4.6 mph - N/A   Clear
10:55 PM 71.1 °F 67.6 °F 89% 29.92 in 10.0 mi North 3.5 mph - N/A   Clear
11:15 PM 70.7 °F 67.8 °F 91% 29.92 in 10.0 mi Calm Calm - N/A   Clear
11:35 PM 69.8 °F 67.8 °F 93% 29.92 in 10.0 mi NNW 3.5 mph - N/A   Clear
11:55 PM 71.2 °F 68.0 °F 89% 29.92 in 10.0 mi NW 3.5 mph - N/A   Clear